User: anonymous   Login
Location: Drayton Valley
(53.2170°N, 114.9830°W)
Time: 09:05:13
(UTC-06:00)
Language:

Cosmos 1302 Rocket - Orbit

View from above orbital plane
View from above orbital plane
View from above satellite
View from above satellite

Ground track
Ground track

The orbit data is extracted from the following two-line orbital elements,

1 12792U 81084B   16204.52938218  .00000030  00000-0  19051-4 0  9996
2 12792  74.0306 282.2253 0014813 287.0638 173.8146 14.37425776827696
Epoch (UTC): 22 July 2016 12:42:18
Eccentricity: 0.0014813
inclination: 74.0306°
perigee height: 756 km
apogee height: 777 km
right ascension of ascending node: 282.2253°
argument of perigee: 287.0638°
revolutions per day: 14.37425776
mean anomaly at epoch: 173.8146°
orbit number at epoch: 82769

The dashed part of the orbit path shows where the satellite is in the earth's shadow,  

DLR